Change the Weather History Date:

Monday, August 18, 2014

  Actual Average Record
Temperature  
Mean Temperature 82 °F -  
Max Temperature 93 °F 86 °F 96 °F (1999)
Min Temperature 73 °F 68 °F 68 °F (2004)
Cooling Degree Days 17    
Growing Degree Days 32 (Base 50)    
Moisture  
Dew Point 74 °F    
Average Humidity 82    
Maximum Humidity 94    
Minimum Humidity 57    
Precipitation  
Precipitation 0.07 in - - ()
Sea Level Pressure  
Sea Level Pressure 29.88 in    
Wind  
Wind Speed 7 mph (SSW)    
Max Wind Speed 20 mph    
Max Gust Speed 25 mph    
Visibility 9 miles    
Events Rain , Thunderstorm    
Averages and records for this station are not official NWS values.
T = Trace of Precipitation, MM = Missing Value Source: NWS Daily Summary

Daily Weather History Graph

Daily Weather History Graph

Search for Another Location

Airport or City:

Trip Planner

Search our weather history database for the weather conditions in past years. The results will help you decide how hot, cold, wet, or windy it might be!

Date:

Astronomy

Aug. 18, 2014 Rise Set
Actual Time 6:32 AM EDT 7:54 PM EDT
Civil Twilight 6:05 AM EDT 8:20 PM EDT
Nautical Twilight 5:34 AM EDT 8:52 PM EDT
Astronomical Twilight 5:01 AM EDT 9:25 PM EDT
Moon 12:41 AM EDT (8/18) 2:51 PM EDT (8/18)
Length of Visible Light 14h 14m
Length of Day
13h 21m
Last Quarter, 38% of the Moon is Illuminated
Aug 18
Last Quarter
Aug 25
New
Sep 2
First Quarter
Sep 8
Full
Sep 15
Last Quarter

Hourly Weather History & Observations

Time (EDT) Temp. Heat Index Dew Point Humidity Pressure Visibility Wind Dir Wind Speed Gust Speed Precip Events Conditions
12:56 AM 77.0 °F - 73.0 °F 88% 29.96 in 9.0 mi SW 5.8 mph - N/A   Mostly Cloudy
1:56 AM 75.9 °F - 73.9 °F 94% 29.94 in 6.0 mi WSW 5.8 mph - N/A   Scattered Clouds
2:56 AM 75.9 °F - 73.9 °F 94% 29.93 in 5.0 mi WSW 5.8 mph - N/A   Mostly Cloudy
3:56 AM 75.0 °F - 73.0 °F 94% 29.93 in 5.0 mi WSW 5.8 mph - N/A   Partly Cloudy
4:56 AM 75.0 °F - 72.0 °F 90% 29.93 in 6.0 mi WSW 6.9 mph - N/A   Clear
5:56 AM 75.0 °F - 72.0 °F 90% 29.94 in 6.0 mi WSW 4.6 mph - N/A   Clear
6:56 AM 73.9 °F - 72.0 °F 93% 29.94 in 4.0 mi Calm Calm - N/A   Clear
7:56 AM 75.9 °F - 73.0 °F 91% 29.93 in 5.0 mi Calm Calm - N/A   Clear
8:56 AM 79.0 °F - 73.9 °F 84% 29.93 in 6.0 mi SSW 4.6 mph - N/A   Haze
9:56 AM 82.0 °F 89.4 °F 75.9 °F 82% 29.93 in 7.0 mi SSW 6.9 mph - N/A   Clear
10:56 AM 86.0 °F 96.0 °F 75.9 °F 72% 29.92 in 9.0 mi South 3.5 mph - N/A   Clear
11:56 AM 88.0 °F 97.5 °F 75.0 °F 65% 29.91 in 10.0 mi SW 5.8 mph - N/A   Partly Cloudy
12:56 PM 91.0 °F 102.9 °F 75.9 °F 61% 29.89 in 10.0 mi Calm Calm - N/A   Partly Cloudy
1:56 PM 90.0 °F 97.9 °F 73.0 °F 57% 29.86 in 10.0 mi SW 9.2 mph - N/A   Mostly Cloudy
2:56 PM 91.0 °F 101.6 °F 75.0 °F 59% 29.82 in 10.0 mi South 11.5 mph - N/A   Scattered Clouds
3:56 PM 89.1 °F 100.2 °F 75.9 °F 65% 29.81 in 10.0 mi South 10.4 mph - N/A   Mostly Cloudy
4:56 PM 87.1 °F 97.3 °F 75.9 °F 69% 29.80 in 10.0 mi South 11.5 mph - N/A   Mostly Cloudy
5:56 PM 87.1 °F 98.8 °F 77.0 °F 72% 29.81 in 10.0 mi South 8.1 mph - N/A   Partly Cloudy
6:22 PM 84.9 °F 95.3 °F 77.0 °F 77% 29.79 in 10.0 mi South 9.2 mph - N/A Thunderstorm Thunderstorm
6:56 PM 81.0 °F 85.8 °F 73.0 °F 77% 29.81 in 10.0 mi East 5.8 mph - N/A Thunderstorm Thunderstorm
7:13 PM 81.0 °F 86.2 °F 73.9 °F 79% 29.80 in 10.0 mi ENE 9.2 mph - N/A   Mostly Cloudy
7:56 PM 80.1 °F 85.1 °F 75.0 °F 85% 29.81 in 10.0 mi East 12.7 mph - N/A   Mostly Cloudy
8:13 PM 79.0 °F - 75.0 °F 88% 29.81 in 10.0 mi ESE 10.4 mph - N/A Thunderstorm Thunderstorm
8:56 PM 79.0 °F - 75.9 °F 90% 29.81 in 10.0 mi SSE 3.5 mph - N/A Thunderstorm Thunderstorm
9:16 PM 80.1 °F 85.4 °F 75.9 °F 87% 29.82 in 10.0 mi North - - N/A Thunderstorm Thunderstorm
9:28 PM 79.0 °F - 73.9 °F 84% 29.86 in 10.0 mi West 19.6 mph 24.2 mph 0.00 in Rain , Thunderstorm Light Thunderstorms and Rain
9:44 PM 75.9 °F - 71.1 °F 85% 29.87 in 10.0 mi NW 15.0 mph - 0.00 in Rain , Thunderstorm Light Thunderstorms and Rain
9:56 PM 75.9 °F - 71.1 °F 85% 29.87 in 10.0 mi West 6.9 mph - 0.00 in Rain , Thunderstorm Light Thunderstorms and Rain
10:56 PM 73.0 °F - 71.1 °F 93% 29.86 in 10.0 mi SE 6.9 mph - 0.07 in   Partly Cloudy
11:15 PM 73.0 °F - 71.1 °F 93% 29.89 in 10.0 mi NNE 13.8 mph - N/A   Mostly Cloudy
11:25 PM 73.0 °F - 71.1 °F 93% 29.90 in 10.0 mi NNE 11.5 mph - N/A   Mostly Cloudy
11:39 PM 73.0 °F - 71.1 °F 93% 29.92 in 10.0 mi North 13.8 mph - N/A   Overcast
11:56 PM 73.0 °F - 70.0 °F 90% 29.91 in 10.0 mi North 16.1 mph 25.3 mph 0.00 in Rain Light Rain